Location: LDNL
(36.4545°S, 141.6685°E)
Time: 04:22:27
(UTC+11:00)

Vanguard 2 - Pass Details

Date: 15 August 2022
Orbit: 552 x 2934 km, 32.9° (Epoch: 06 October)

Event Time Altitude Azimuth Distance (km) Brightness Sun altitude
Rises 15:39:47 0° 310° (NW) 6,629 13.8 23.8°
Reaches altitude 10° 15:44:13 10° 314° (NW) 5,718 14.0 23.1°
Maximum altitude 16:01:19 54° 24° (NNE) 3,172 11.0 20.4°
Drops below altitude 10° 16:15:06 10° 96° (E) 4,712 11.1 18.1°
Sets 16:18:20 0° 100° (E) 5,440 11.3 17.6°
